Regional Weather Roundup
Issued by NWS

Home | Current Version | Previous Version | Graphics & Text | Print | Product List | Glossary On
Versions: 1 2 3 4 5 6 7 8 9 10 11 12 13 14 15 16 17 18 19 20 21 22 23 24 25 26 27 28 29 30 31 32 33 34 35 36 37 38 39 40 41 42 43 44 45 46 47 48 49 50
000
ASUS45 KCYS 301410
RWRWY

WYOMING REGIONAL WEATHER ROUNDUP
NATIONAL WEATHER SERVICE CHEYENNE WY
800 AM MDT THU JUL 30 2015

NOTE:  "FAIR" INDICATES FEW OR NO CLOUDS BELOW 12,000 FEET
WITH NO SIGNIFICANT WEATHER AND/OR OBSTRUCTIONS TO VISIBILITY.

WYZ001-301500-
YELLOWSTONE NATIONAL PARK

CITY           SKY/WX    TMP DP  RH WIND       PRES   REMARKS
LK YELLOWSTONE   N/A     43  38  82 CALM      30.57R
W YELLOWSTONE  NOT AVBL

$$
WYZ002>013-054>058-071-098>099-301500-
NORTHERN WYOMING

CITY           SKY/WX    TMP DP  RH WIND       PRES   REMARKS
JACKSON        FAIR      45  37  76 CALM      30.51R
CODY           FAIR      63  43  48 CALM      30.38R
GREYBULL       FAIR      57  36  45 SE3       30.33R
WORLAND        FAIR      60  31  33 S5        30.34R
SHERIDAN       FAIR      62  47  57 CALM      30.31R
BUFFALO        FAIR      70  38  31 SW6       30.37R
GILLETTE       FAIR      66  42  41 CALM      30.33R
HULETT         FAIR      63  41  45 SW6       30.33R
NEWCASTLE      FAIR      63  43  48 CALM      30.33R

$$
WYZ014>020-022>026-101>103-301500-
CENTRAL WYOMING

CITY           SKY/WX    TMP DP  RH WIND       PRES   REMARKS
BIG PINEY      FAIR      49  31  49 CALM      30.50R
PINEDALE       FAIR      46  34  61 NW8       30.50R
DUBOIS         FAIR      46  30  53 NW13      30.51R
LANDER         FAIR      59  32  36 CALM      30.40R
RIVERTON       FAIR      61  34  36 NW7       30.41R
CASPER         FAIR      61  33  35 W3        30.40R
DOUGLAS        FAIR      58  35  42 NW8       30.38R

$$
WYZ021-027>030-104>119-301500-
SOUTHERN WYOMING

CITY           SKY/WX    TMP DP  RH WIND       PRES   REMARKS
EVANSTON       FAIR      53  26  35 VRB3      30.49R
KEMMERER       FAIR      48  30  49 N9        30.51R
FORT BRIDGER   SUNNY     59  27  29 W3        30.51R
ROCK SPRINGS   FAIR      58  23  26 CALM      30.47R
DIXON          FAIR      56  24  28 SE8       30.48R
RAWLINS        FAIR      55  21  26 CALM      30.47R
SARATOGA       FAIR      59  27  29 SE6       30.49R
LARAMIE        FAIR      55  39  54 S7        30.49R
CHEYENNE       FAIR      66  46  48 W8        30.39R
TORRINGTON     FAIR      61  50  67 W6        30.30R
PINE BLUFFS    FAIR      64  52  63 SW5       30.35R

$$


USA.gov is the U.S. government's official web portal to all federal, state and local government web resources and services.